Location: Cactus School
(34.5700°N, 118.0931°W)
Time: 21:35:34
(UTC-07:00)

Vanguard 2 - Pass Details

Date: 28 April 2024
Orbit: 553 x 2914 km, 32.9° (Epoch: 18 May)

Event Time Altitude Azimuth Distance (km) Brightness Sun altitude
Exits shadow 04:02:48 11° 277° (W) 4,877 11.2 -23.0°
Maximum altitude 04:17:57 76° 195° (SSW) 2,923 10.2 -20.5°
Drops below altitude 10° 04:35:36 10° 113° (ESE) 5,534 12.3 -17.4°
Sets 04:39:34 0° 112° (ESE) 6,381 12.7 -16.8°
